Dati Storici

Data ora Umidita' aria (%) Temperatura aria (°C) Rad globale (W/m²) Gonioanemometro (°) Tacoanemometro (m/s) Pioggia (mm)
09-06-2020 08:50 92.3 % 18.385 -78.381 2.187 0 0
09-06-2020 08:40 95.2 % 18.151 -80.915 1.604 0 0
09-06-2020 08:30 95.7 % 17.666 -78.116 2.535 0 0
09-06-2020 08:20 97.7 % 17.578 -80.455 3.072 0 0
09-06-2020 08:10 97.7 % 17.393 -75.681 2.348 0 0
09-06-2020 08:00 97.8 % 17.34 -81.535 2.027 0 0
09-06-2020 07:50 97.8 % 17.06 -76.782 1.058 0 0
09-06-2020 07:40 97.9 % 17.111 -80.676 3.167 0 0
09-06-2020 07:30 97.9 % 17.291 -78.483 1.279 0 0
09-06-2020 07:20 97.9 % 16.911 -73.044 0.8 0 0
09-06-2020 07:10 98 % 16.619 -79.041 1.854 0 0
09-06-2020 07:00 98 % 16.195 -79.683 1.268 0 0
09-06-2020 06:50 98 % 16.081 -82.636 2.136 0 0
09-06-2020 06:40 98 % 15.915 -81.841 1.608 0 0
09-06-2020 06:30 98 % 15.736 -77.627 2.701 0 0
09-06-2020 06:20 98 % 15.658 -78.85 3.034 0 0
09-06-2020 06:10 98 % 15.584 -77.421 2.287 0 0
09-06-2020 06:00 98 % 15.403 -78.569 2.663 0 0
09-06-2020 05:50 98 % 15.33 -81.923 1.61 0 0
09-06-2020 05:40 98 % 15.295 -78.361 1.115 0 0

I dati sono presentati in modo automatico a scopo informativo. In seguito a verifica i dati possono subire modifiche o essere invalidati e non riportati negli archivi definitivi.